Weather History for Evansville, IN

Change the Weather History Date:

Thursday, January 31, 2013

  Actual Average Record
Temperature  
Mean Temperature 27 °F 33 °F  
Max Temperature 37 °F 42 °F 68 °F (1989)
Min Temperature 17 °F 24 °F -14 °F (1965)
Degree Days  
Heating Degree Days 38 32  
Month to date heating degree days 912 1010  
Since 1 July heating degree days 2565 2779  
Cooling Degree Days 0 0  
Month to date cooling degree days 0 0  
Year to date cooling degree days 0 0  
Moisture  
Dew Point 20 °F    
Average Humidity 69    
Maximum Humidity 85    
Minimum Humidity 52    
Precipitation  
Precipitation 0.06 in 0.11 in 2.08 in (1915)
Month to date precipitation 6.77 3.10  
Year to date precipitation 6.77 3.10  
Snow  
Snow T in 0.10 in 3.70 in (1951)
Month to date snowfall T 3.4  
Since 1 July snowfall 10.7 6.9  
Snow Depth 0.00 in    
Sea Level Pressure  
Sea Level Pressure 30.05 in    
Wind  
Wind Speed 15 mph (West)    
Max Wind Speed 28 mph    
Max Gust Speed 40 mph    
Visibility 7 miles    
Events Fog , Snow    
T = Trace of Precipitation, MM = Missing Value Source: NWS Daily Summary

Daily Weather History Graph

Daily Weather History Graph

Search for Another Location

Airport:

Trip Planner

Search our weather history database for the weather conditions in past years. The results will help you decide how hot, cold, wet, or windy it might be!

Date:

Astronomy

Jan. 31, 2013 Rise Set
Actual Time 6:55 AM CST 5:12 PM CST
Civil Twilight 6:27 AM CST 5:40 PM CST
Nautical Twilight 5:55 AM CST 6:11 PM CST
Astronomical Twilight 5:24 AM CST 6:42 PM CST
Moon 10:08 PM CST (1/31) 8:59 AM CST (1/31)
Length of Visible Light 11h 12m
Length of Day
10h 17m
Waning Gibbous, 79% of the Moon is Illuminated
Jan 31
Waning Gibbous
Feb 3
Last Quarter
Feb 10
New
Feb 17
First Quarter
Feb 25
Full

Hourly Weather History & Observations

Time (CST) Temp. Windchill Dew Point Humidity Pressure Visibility Wind Dir Wind Speed Gust Speed Precip Events Conditions
12:54 AM 30.9 °F 19.1 °F 18.0 °F 59% 29.90 in 10.0 mi West 18.4 mph 29.9 mph N/A   Overcast
1:54 AM 30.0 °F 18.3 °F 18.0 °F 61% 29.93 in 10.0 mi West 17.3 mph 26.5 mph N/A   Overcast
2:54 AM 30.0 °F 17.9 °F 18.0 °F 61% 29.93 in 10.0 mi West 18.4 mph 28.8 mph N/A   Overcast
3:54 AM 30.0 °F 19.5 °F 18.0 °F 61% 29.94 in 10.0 mi West 13.8 mph 24.2 mph N/A   Overcast
4:11 AM 30.2 °F 20.2 °F 19.4 °F 64% 29.94 in 10.0 mi West 12.7 mph - N/A   Overcast
4:50 AM 28.4 °F 16.6 °F 17.6 °F 64% 29.95 in 10.0 mi WNW 16.1 mph 21.9 mph N/A   Overcast
4:54 AM 28.9 °F 16.9 °F 17.1 °F 61% 29.96 in 10.0 mi WNW 17.3 mph 23.0 mph N/A   Overcast
5:54 AM 28.4 °F 16.6 °F 15.8 °F 59% 29.96 in 10.0 mi West 16.1 mph 26.5 mph N/A   Overcast
6:54 AM 28.9 °F 20.4 °F 17.1 °F 61% 30.00 in 10.0 mi West 9.2 mph - N/A   Overcast
7:54 AM 28.9 °F 18.2 °F 19.0 °F 67% 30.03 in 10.0 mi WSW 13.8 mph - N/A   Overcast
8:54 AM 30.0 °F 19.5 °F 18.0 °F 61% 30.04 in 10.0 mi West 13.8 mph 25.3 mph 0.00 in   Overcast
9:54 AM 32.0 °F 20.8 °F 18.0 °F 56% 30.06 in 10.0 mi West 17.3 mph 24.2 mph N/A   Overcast
10:54 AM 32.0 °F 20.1 °F 19.0 °F 59% 30.07 in 10.0 mi West 19.6 mph 25.3 mph N/A   Overcast
11:54 AM 34.0 °F 23.8 °F 19.9 °F 56% 30.06 in 10.0 mi WSW 16.1 mph 25.3 mph N/A   Overcast
12:54 PM 35.1 °F 24.8 °F 19.9 °F 54% 30.03 in 10.0 mi West 17.3 mph - N/A   Overcast
1:54 PM 36.0 °F 27.1 °F 21.0 °F 55% 30.02 in 10.0 mi WSW 13.8 mph 31.1 mph N/A   Mostly Cloudy
2:54 PM 36.0 °F 25.6 °F 19.9 °F 52% 30.02 in 10.0 mi West 18.4 mph 26.5 mph N/A   Mostly Cloudy
3:54 PM 36.0 °F 28.0 °F 21.0 °F 55% 30.02 in 10.0 mi West 11.5 mph - N/A   Overcast
4:54 PM 35.1 °F 24.5 °F 23.0 °F 61% 30.02 in 6.0 mi West 18.4 mph 25.3 mph 0.00 in Snow Light Snow
5:06 PM 33.8 °F 22.5 °F 26.6 °F 75% 30.02 in 2.5 mi West 19.6 mph 26.5 mph 0.00 in Snow Light Snow
5:11 PM 33.8 °F 23.2 °F 26.6 °F 75% 30.02 in 1.2 mi West 17.3 mph - 0.00 in Snow Light Snow
5:24 PM 32.0 °F 21.6 °F 28.4 °F 87% 30.03 in 0.5 mi West 15.0 mph 23.0 mph 0.00 in Fog , Snow Snow
5:31 PM 32.0 °F 22.5 °F 28.4 °F 87% 30.02 in 0.5 mi West 12.7 mph 23.0 mph 0.00 in Fog , Snow Snow
5:41 PM 32.0 °F 22.5 °F 28.4 °F 87% 30.02 in 0.5 mi West 12.7 mph - 0.01 in Fog , Snow Snow
5:54 PM 32.0 °F 23.6 °F 28.9 °F 88% 30.04 in 1.0 mi WSW 10.4 mph - 0.03 in Snow Light Snow
6:32 PM 32.0 °F 20.5 °F 28.4 °F 87% 30.03 in 2.0 mi West 18.4 mph 26.5 mph 0.03 in Snow Light Snow
6:39 PM 32.0 °F 19.2 °F 26.6 °F 80% 30.05 in 2.5 mi WNW 23.0 mph 29.9 mph 0.03 in Snow Light Snow
6:42 PM 30.2 °F 15.7 °F 26.6 °F 86% 30.05 in 1.2 mi WNW 27.6 mph 40.3 mph 0.03 in Snow Light Snow
6:51 PM 26.6 °F 12.4 °F 23.0 °F 86% 30.06 in 1.0 mi NW 21.9 mph 36.8 mph 0.03 in Snow Light Snow
6:54 PM 27.0 °F 12.8 °F 21.9 °F 81% 30.08 in 1.8 mi NW 21.9 mph 36.8 mph 0.03 in Snow Light Snow
7:01 PM 26.6 °F 12.7 °F 21.2 °F 80% 30.07 in 0.8 mi NW 20.7 mph 32.2 mph 0.00 in Snow Snow
7:22 PM 24.8 °F 10.7 °F 19.4 °F 80% 30.11 in 0.8 mi NNW 19.6 mph 33.4 mph 0.00 in Snow Snow
7:37 PM 24.8 °F 9.0 °F 17.6 °F 74% 30.13 in 0.8 mi NW 25.3 mph 32.2 mph 0.00 in Snow Snow
7:54 PM 23.0 °F 9.6 °F 14.0 °F 68% 30.16 in 9.0 mi NW 16.1 mph 29.9 mph 0.00 in Snow Light Snow
8:54 PM 19.9 °F 5.2 °F 9.0 °F 62% 30.20 in 10.0 mi NW 17.3 mph 32.2 mph 0.00 in   Clear
9:54 PM 18.0 °F 3.1 °F 8.1 °F 65% 30.25 in 10.0 mi NW 16.1 mph 25.3 mph N/A   Clear
10:54 PM 17.6 °F 5.7 °F 6.8 °F 63% 30.26 in 10.0 mi NW 10.4 mph - N/A   Mostly Cloudy
11:54 PM 17.1 °F 2.5 °F 7.0 °F 65% 30.32 in 10.0 mi NW 15.0 mph 24.2 mph N/A   Overcast